owner,sensor,date,latitude,longitude,vertical_datum,sea_water_temperature,qcFlag
BP,ioos:station:wmo:42865:1,2021-08-01T00:01:00Z,28.1831,-88.4732,14.7,29.7,11111222
BP,ioos:station:wmo:42865:1,2021-08-01T00:11:00Z,28.1831,-88.4732,14.7,29.7,11111222
BP,ioos:station:wmo:42865:1,2021-08-01T00:21:00Z,28.1831,-88.4732,14.6,29.7,11111222
BP,ioos:station:wmo:42865:1,2021-08-01T00:31:00Z,28.1831,-88.4732,14.5,29.7,11111222
BP,ioos:station:wmo:42865:1,2021-08-01T00:41:00Z,28.1831,-88.4732,14.4,29.7,11111222
BP,ioos:station:wmo:42865:1,2021-08-01T00:51:00Z,28.1831,-88.4732,14.5,29.7,11111222
BP,ioos:station:wmo:42865:1,2021-08-01T01:01:00Z,28.1831,-88.4732,14.4,29.7,11111222
BP,ioos:station:wmo:42865:1,2021-08-01T01:11:00Z,28.1831,-88.4732,14.3,29.7,11111222
BP,ioos:station:wmo:42865:1,2021-08-01T01:21:00Z,28.1831,-88.4732,14.5,29.8,11111222
BP,ioos:station:wmo:42865:1,2021-08-01T01:31:00Z,28.1831,-88.4732,14.5,29.8,11111222
BP,ioos:station:wmo:42865:1,2021-08-01T01:41:00Z,28.1831,-88.4732,14.5,29.8,11111222
BP,ioos:station:wmo:42865:1,2021-08-01T01:51:00Z,28.1831,-88.4732,14.4,29.8,11111222
BP,ioos:station:wmo:42865:1,2021-08-01T02:01:00Z,28.1831,-88.4732,14.3,29.8,11111222
BP,ioos:station:wmo:42865:1,2021-08-01T02:11:00Z,28.1831,-88.4732,14.4,29.9,11111222
BP,ioos:station:wmo:42865:1,2021-08-01T02:21:00Z,28.1831,-88.4732,14.4,29.9,11111222
BP,ioos:station:wmo:42865:1,2021-08-01T02:31:00Z,28.1831,-88.4732,14.4,29.9,11111222
BP,ioos:station:wmo:42865:1,2021-08-01T02:41:00Z,28.1831,-88.4732,14.6,29.9,11111222
BP,ioos:station:wmo:42865:1,2021-08-01T02:51:00Z,28.1831,-88.4732,14.6,29.9,11111222
BP,ioos:station:wmo:42865:1,2021-08-01T03:01:00Z,28.1831,-88.4732,14.6,29.8,11111222
BP,ioos:station:wmo:42865:1,2021-08-01T03:11:00Z,28.1831,-88.4732,14.6,29.8,11111222
BP,ioos:station:wmo:42865:1,2021-08-01T03:21:00Z,28.1831,-88.4732,14.7,29.8,11111222
BP,ioos:station:wmo:42865:1,2021-08-01T03:31:00Z,28.1831,-88.4732,14.7,29.8,11111222
BP,ioos:station:wmo:42865:1,2021-08-01T03:41:00Z,28.1831,-88.4732,14.7,29.7,11111222
BP,ioos:station:wmo:42865:1,2021-08-01T03:51:00Z,28.1831,-88.4732,14.6,29.8,11111222
BP,ioos:station:wmo:42865:1,2021-08-01T04:01:00Z,28.1831,-88.4732,14.6,29.9,11111222
BP,ioos:station:wmo:42865:1,2021-08-01T04:11:00Z,28.1831,-88.4732,14.7,29.9,11111222
BP,ioos:station:wmo:42865:1,2021-08-01T04:21:00Z,28.1831,-88.4732,14.7,29.7,11111222
BP,ioos:station:wmo:42865:1,2021-08-01T04:31:00Z,28.1831,-88.4732,14.7,29.7,11111222
BP,ioos:station:wmo:42865:1,2021-08-01T04:41:00Z,28.1831,-88.4732,14.7,29.7,11111222
BP,ioos:station:wmo:42865:1,2021-08-01T04:51:00Z,28.1831,-88.4732,14.6,29.7,11111222
BP,ioos:station:wmo:42865:1,2021-08-01T05:01:00Z,28.1831,-88.4732,14.6,29.8,11111222
BP,ioos:station:wmo:42865:1,2021-08-01T05:11:00Z,28.1831,-88.4732,14.5,29.7,11111222
BP,ioos:station:wmo:42865:1,2021-08-01T05:21:00Z,28.1831,-88.4732,14.4,29.7,11111222
BP,ioos:station:wmo:42865:1,2021-08-01T05:31:00Z,28.1831,-88.4732,14.4,29.7,11111222
BP,ioos:station:wmo:42865:1,2021-08-01T05:41:00Z,28.1831,-88.4732,14.3,29.7,11111222
BP,ioos:station:wmo:42865:1,2021-08-01T05:51:00Z,28.1831,-88.4732,14.2,29.7,11111222
BP,ioos:station:wmo:42865:1,2021-08-01T06:01:00Z,28.1831,-88.4732,14.1,29.8,11111222
BP,ioos:station:wmo:42865:1,2021-08-01T06:11:00Z,28.1831,-88.4732,14.1,29.8,11111222
BP,ioos:station:wmo:42865:1,2021-08-01T06:21:00Z,28.1831,-88.4732,13.9,29.8,11111222
BP,ioos:station:wmo:42865:1,2021-08-01T06:31:00Z,28.1831,-88.4732,13.9,29.8,11111222
BP,ioos:station:wmo:42865:1,2021-08-01T06:41:00Z,28.1831,-88.4732,14.0,29.8,11111222
BP,ioos:station:wmo:42865:1,2021-08-01T06:51:00Z,28.1831,-88.4732,14.0,29.8,11111222
BP,ioos:station:wmo:42865:1,2021-08-01T07:01:00Z,28.1831,-88.4732,13.9,29.8,11111222
BP,ioos:station:wmo:42865:1,2021-08-01T07:11:00Z,28.1831,-88.4732,14.0,29.8,11111222
BP,ioos:station:wmo:42865:1,2021-08-01T07:21:00Z,28.1831,-88.4732,14.0,29.8,11111222
BP,ioos:station:wmo:42865:1,2021-08-01T07:31:00Z,28.1831,-88.4732,13.9,29.8,11111222
BP,ioos:station:wmo:42865:1,2021-08-01T07:41:00Z,28.1831,-88.4732,13.8,29.9,11111222
BP,ioos:station:wmo:42865:1,2021-08-01T07:51:00Z,28.1831,-88.4732,13.7,29.9,11111222
BP,ioos:station:wmo:42865:1,2021-08-01T08:01:00Z,28.1831,-88.4732,13.7,29.9,11111222
BP,ioos:station:wmo:42865:1,2021-08-01T08:11:00Z,28.1831,-88.4732,13.8,29.9,11111222
BP,ioos:station:wmo:42865:1,2021-08-01T08:21:00Z,28.1831,-88.4732,13.9,29.9,11111222
BP,ioos:station:wmo:42865:1,2021-08-01T08:31:00Z,28.1831,-88.4732,13.9,29.8,11111222
BP,ioos:station:wmo:42865:1,2021-08-01T08:41:00Z,28.1831,-88.4732,14.0,29.8,11111222
BP,ioos:station:wmo:42865:1,2021-08-01T08:51:00Z,28.1831,-88.4732,14.0,29.8,11111222
BP,ioos:station:wmo:42865:1,2021-08-01T09:01:00Z,28.1831,-88.4732,14.1,29.8,11111222
BP,ioos:station:wmo:42865:1,2021-08-01T09:11:00Z,28.1831,-88.4732,14.1,29.8,11111222
BP,ioos:station:wmo:42865:1,2021-08-01T09:21:00Z,28.1831,-88.4732,14.0,29.8,11111222
BP,ioos:station:wmo:42865:1,2021-08-01T09:31:00Z,28.1831,-88.4732,14.0,29.8,11111222
BP,ioos:station:wmo:42865:1,2021-08-01T09:41:00Z,28.1831,-88.4732,14.0,29.8,11111222
BP,ioos:station:wmo:42865:1,2021-08-01T09:51:00Z,28.1831,-88.4732,14.0,29.8,11111222
BP,ioos:station:wmo:42865:1,2021-08-01T10:01:00Z,28.1831,-88.4732,13.9,29.8,11111222
BP,ioos:station:wmo:42865:1,2021-08-01T10:11:00Z,28.1831,-88.4732,13.9,29.8,11111222
BP,ioos:station:wmo:42865:1,2021-08-01T10:21:00Z,28.1831,-88.4732,13.9,29.8,11111222
BP,ioos:station:wmo:42865:1,2021-08-01T10:31:00Z,28.1831,-88.4732,14.0,29.7,11111222
BP,ioos:station:wmo:42865:1,2021-08-01T10:41:00Z,28.1831,-88.4732,14.0,29.7,11111222
BP,ioos:station:wmo:42865:1,2021-08-01T10:51:00Z,28.1831,-88.4732,13.9,29.7,11111222
BP,ioos:station:wmo:42865:1,2021-08-01T11:01:00Z,28.1831,-88.4732,13.9,29.7,11111222
BP,ioos:station:wmo:42865:1,2021-08-01T11:11:00Z,28.1831,-88.4732,14.0,29.7,11111222
BP,ioos:station:wmo:42865:1,2021-08-01T11:21:00Z,28.1831,-88.4732,13.9,29.8,11111222
BP,ioos:station:wmo:42865:1,2021-08-01T11:31:00Z,28.1831,-88.4732,13.9,29.8,11111222
BP,ioos:station:wmo:42865:1,2021-08-01T11:41:00Z,28.1831,-88.4732,14.1,29.8,11111222
BP,ioos:station:wmo:42865:1,2021-08-01T11:51:00Z,28.1831,-88.4732,14.1,29.9,11111222
BP,ioos:station:wmo:42865:1,2021-08-01T12:01:00Z,28.1831,-88.4732,14.2,29.9,11111222
BP,ioos:station:wmo:42865:1,2021-08-01T12:11:00Z,28.1831,-88.4732,14.0,29.9,11111222
BP,ioos:station:wmo:42865:1,2021-08-01T12:21:00Z,28.1831,-88.4732,14.1,29.9,11111222
BP,ioos:station:wmo:42865:1,2021-08-01T12:32:00Z,28.1831,-88.4732,14.1,29.8,11111222
BP,ioos:station:wmo:42865:1,2021-08-01T12:42:00Z,28.1831,-88.4732,14.1,29.8,11111222
BP,ioos:station:wmo:42865:1,2021-08-01T12:52:00Z,28.1831,-88.4732,14.1,29.8,11111222
BP,ioos:station:wmo:42865:1,2021-08-01T13:02:00Z,28.1831,-88.4732,14.0,29.8,11111222
BP,ioos:station:wmo:42865:1,2021-08-01T13:12:00Z,28.1831,-88.4732,13.9,29.8,11111222
BP,ioos:station:wmo:42865:1,2021-08-01T13:22:00Z,28.1831,-88.4732,13.9,29.8,11111222
BP,ioos:station:wmo:42865:1,2021-08-01T13:32:00Z,28.1831,-88.4732,13.8,29.8,11111222
BP,ioos:station:wmo:42865:1,2021-08-01T13:42:00Z,28.1831,-88.4732,13.7,29.8,11111222
BP,ioos:station:wmo:42865:1,2021-08-01T13:52:00Z,28.1831,-88.4732,13.6,29.8,11111222
BP,ioos:station:wmo:42865:1,2021-08-01T14:02:00Z,28.1831,-88.4732,13.7,29.8,11111222
BP,ioos:station:wmo:42865:1,2021-08-01T14:12:00Z,28.1831,-88.4732,13.7,29.8,11111222
BP,ioos:station:wmo:42865:1,2021-08-01T14:22:00Z,28.1831,-88.4732,13.7,29.8,11111222
BP,ioos:station:wmo:42865:1,2021-08-01T14:32:00Z,28.1831,-88.4732,13.6,29.9,11111222
BP,ioos:station:wmo:42865:1,2021-08-01T14:42:00Z,28.1831,-88.4732,13.5,29.9,11111222
BP,ioos:station:wmo:42865:1,2021-08-01T14:59:00Z,28.1831,-88.4732,13.6,29.9,11111222
BP,ioos:station:wmo:42865:1,2021-08-01T15:09:00Z,28.1831,-88.4732,13.5,29.9,11111222
BP,ioos:station:wmo:42865:1,2021-08-01T15:19:00Z,28.1831,-88.4732,13.5,30.0,11111222
BP,ioos:station:wmo:42865:1,2021-08-01T15:29:00Z,28.1831,-88.4732,13.5,30.0,11111222
BP,ioos:station:wmo:42865:1,2021-08-01T15:39:00Z,28.1831,-88.4732,13.5,30.0,11111222
BP,ioos:station:wmo:42865:1,2021-08-01T15:49:00Z,28.1831,-88.4732,13.4,30.0,11111222
BP,ioos:station:wmo:42865:1,2021-08-01T15:59:00Z,28.1831,-88.4732,13.5,30.0,11111222
BP,ioos:station:wmo:42865:1,2021-08-01T16:09:00Z,28.1831,-88.4732,13.5,30.0,11111222
BP,ioos:station:wmo:42865:1,2021-08-01T16:19:00Z,28.1831,-88.4732,13.6,30.0,11111222
BP,ioos:station:wmo:42865:1,2021-08-01T16:29:00Z,28.1831,-88.4732,13.6,30.0,11111222
BP,ioos:station:wmo:42865:1,2021-08-01T16:39:00Z,28.1831,-88.4732,13.6,30.0,11111222
BP,ioos:station:wmo:42865:1,2021-08-01T16:49:00Z,28.1831,-88.4732,13.7,30.0,11111222
BP,ioos:station:wmo:42865:1,2021-08-01T16:59:00Z,28.1831,-88.4732,13.7,30.0,11111222
BP,ioos:station:wmo:42865:1,2021-08-01T17:09:00Z,28.1831,-88.4732,13.8,30.0,11111222
BP,ioos:station:wmo:42865:1,2021-08-01T17:19:00Z,28.1831,-88.4732,13.7,30.0,11111222
BP,ioos:station:wmo:42865:1,2021-08-01T17:29:00Z,28.1831,-88.4732,13.8,30.1,11111222
BP,ioos:station:wmo:42865:1,2021-08-01T17:39:00Z,28.1831,-88.4732,13.8,30.1,11111222
BP,ioos:station:wmo:42865:1,2021-08-01T17:49:00Z,28.1831,-88.4732,13.7,30.1,11111222
BP,ioos:station:wmo:42865:1,2021-08-01T17:59:00Z,28.1831,-88.4732,13.8,30.1,11111222
BP,ioos:station:wmo:42865:1,2021-08-01T18:09:00Z,28.1831,-88.4732,13.8,30.0,11111222
BP,ioos:station:wmo:42865:1,2021-08-01T18:19:00Z,28.1831,-88.4732,13.8,30.0,11111222
BP,ioos:station:wmo:42865:1,2021-08-01T18:29:00Z,28.1831,-88.4732,13.8,30.1,11111222
BP,ioos:station:wmo:42865:1,2021-08-01T18:39:00Z,28.1831,-88.4732,13.8,30.1,11111222
BP,ioos:station:wmo:42865:1,2021-08-01T18:49:00Z,28.1831,-88.4732,13.9,30.1,11111222
BP,ioos:station:wmo:42865:1,2021-08-01T18:59:00Z,28.1831,-88.4732,13.8,30.1,11111222
BP,ioos:station:wmo:42865:1,2021-08-01T19:09:00Z,28.1831,-88.4732,13.8,30.0,11111222
BP,ioos:station:wmo:42865:1,2021-08-01T19:19:00Z,28.1831,-88.4732,13.9,30.0,11111222
BP,ioos:station:wmo:42865:1,2021-08-01T19:29:00Z,28.1831,-88.4732,13.7,30.1,11111222
BP,ioos:station:wmo:42865:1,2021-08-01T19:39:00Z,28.1831,-88.4732,12.6,30.0,11111222
BP,ioos:station:wmo:42865:1,2021-08-01T19:49:00Z,28.1831,-88.4732,12.8,30.1,11111222
BP,ioos:station:wmo:42865:1,2021-08-01T19:59:00Z,28.1831,-88.4732,12.8,30.2,11111222
BP,ioos:station:wmo:42865:1,2021-08-01T20:09:00Z,28.1831,-88.4732,12.8,30.2,11111222
BP,ioos:station:wmo:42865:1,2021-08-01T20:19:00Z,28.1831,-88.4732,12.8,30.2,11111222
BP,ioos:station:wmo:42865:1,2021-08-01T20:29:00Z,28.1831,-88.4732,12.8,30.3,11111222
BP,ioos:station:wmo:42865:1,2021-08-01T20:39:00Z,28.1831,-88.4732,12.8,30.5,11111222
BP,ioos:station:wmo:42865:1,2021-08-01T20:49:00Z,28.1831,-88.4732,13.0,30.6,11111222
BP,ioos:station:wmo:42865:1,2021-08-01T20:59:00Z,28.1831,-88.4732,13.2,30.3,11111222
BP,ioos:station:wmo:42865:1,2021-08-01T21:10:00Z,28.1831,-88.4732,12.8,30.2,11111222
BP,ioos:station:wmo:42865:1,2021-08-01T21:20:00Z,28.1831,-88.4732,13.0,30.1,11111222
BP,ioos:station:wmo:42865:1,2021-08-01T21:30:00Z,28.1831,-88.4732,13.0,30.1,11111222
BP,ioos:station:wmo:42865:1,2021-08-01T21:40:00Z,28.1831,-88.4732,12.9,30.1,11111222
BP,ioos:station:wmo:42865:1,2021-08-01T21:50:00Z,28.1831,-88.4732,12.8,30.2,11111222
BP,ioos:station:wmo:42865:1,2021-08-01T22:00:00Z,28.1831,-88.4732,12.8,30.2,11111222
BP,ioos:station:wmo:42865:1,2021-08-01T22:10:00Z,28.1831,-88.4732,12.6,30.5,11111222
BP,ioos:station:wmo:42865:1,2021-08-01T22:20:00Z,28.1831,-88.4732,12.7,30.2,11111222
BP,ioos:station:wmo:42865:1,2021-08-01T22:30:00Z,28.1831,-88.4732,12.5,30.3,11111222
BP,ioos:station:wmo:42865:1,2021-08-01T22:40:00Z,28.1831,-88.4732,12.4,30.3,11111222
BP,ioos:station:wmo:42865:1,2021-08-01T22:50:00Z,28.1831,-88.4732,12.3,30.4,11111222
BP,ioos:station:wmo:42865:1,2021-08-01T23:00:00Z,28.1831,-88.4732,12.3,30.5,11111222
BP,ioos:station:wmo:42865:1,2021-08-01T23:10:00Z,28.1831,-88.4732,12.3,30.5,11111222
BP,ioos:station:wmo:42865:1,2021-08-01T23:20:00Z,28.1831,-88.4732,12.2,30.2,11111222
BP,ioos:station:wmo:42865:1,2021-08-01T23:30:00Z,28.1831,-88.4732,12.3,30.0,11111222
BP,ioos:station:wmo:42865:1,2021-08-01T23:40:00Z,28.1831,-88.4732,12.5,30.0,11111222
BP,ioos:station:wmo:42865:1,2021-08-01T23:50:00Z,28.1831,-88.4732,12.4,29.9,11111222
BP,ioos:station:wmo:42865:1,2021-08-02T00:00:00Z,28.1831,-88.4732,12.7,29.9,11111222
BP,ioos:station:wmo:42865:1,2021-08-02T00:10:00Z,28.1831,-88.4732,12.6,30.0,11111222
BP,ioos:station:wmo:42865:1,2021-08-02T00:20:00Z,28.1831,-88.4732,12.5,30.0,11111222
BP,ioos:station:wmo:42865:1,2021-08-02T00:30:00Z,28.1831,-88.4732,12.4,30.1,11111222
BP,ioos:station:wmo:42865:1,2021-08-02T00:40:00Z,28.1831,-88.4732,12.4,30.1,11111222
BP,ioos:station:wmo:42865:1,2021-08-02T00:50:00Z,28.1831,-88.4732,12.4,30.2,11111222
BP,ioos:station:wmo:42865:1,2021-08-02T01:00:00Z,28.1831,-88.4732,12.4,30.2,11111222
BP,ioos:station:wmo:42865:1,2021-08-02T01:10:00Z,28.1831,-88.4732,12.4,30.1,11111222
BP,ioos:station:wmo:42865:1,2021-08-02T01:20:00Z,28.1831,-88.4732,12.4,30.1,11111222
BP,ioos:station:wmo:42865:1,2021-08-02T01:30:00Z,28.1831,-88.4732,12.4,30.1,11111222
BP,ioos:station:wmo:42865:1,2021-08-02T01:40:00Z,28.1831,-88.4732,12.5,30.1,11111222
BP,ioos:station:wmo:42865:1,2021-08-02T01:50:00Z,28.1831,-88.4732,12.4,30.2,11111222
BP,ioos:station:wmo:42865:1,2021-08-02T02:00:00Z,28.1831,-88.4732,12.4,30.2,11111222
BP,ioos:station:wmo:42865:1,2021-08-02T02:10:00Z,28.1831,-88.4732,12.5,30.2,11111222
BP,ioos:station:wmo:42865:1,2021-08-02T02:20:00Z,28.1831,-88.4732,12.7,30.2,11111222
BP,ioos:station:wmo:42865:1,2021-08-02T02:30:00Z,28.1831,-88.4732,12.7,30.2,11111222
BP,ioos:station:wmo:42865:1,2021-08-02T02:40:00Z,28.1831,-88.4732,12.8,30.1,11111222
BP,ioos:station:wmo:42865:1,2021-08-02T02:50:00Z,28.1831,-88.4732,12.8,30.2,11111222
BP,ioos:station:wmo:42865:1,2021-08-02T03:00:00Z,28.1831,-88.4732,12.8,30.2,11111222
BP,ioos:station:wmo:42865:1,2021-08-02T03:10:00Z,28.1831,-88.4732,12.8,30.2,11111222
BP,ioos:station:wmo:42865:1,2021-08-02T03:20:00Z,28.1831,-88.4732,12.8,30.2,11111222
BP,ioos:station:wmo:42865:1,2021-08-02T03:30:00Z,28.1831,-88.4732,12.9,30.3,11111222
BP,ioos:station:wmo:42865:1,2021-08-02T03:40:00Z,28.1831,-88.4732,12.9,30.3,11111222
BP,ioos:station:wmo:42865:1,2021-08-02T03:50:00Z,28.1831,-88.4732,12.9,30.2,11111222
BP,ioos:station:wmo:42865:1,2021-08-02T04:00:00Z,28.1831,-88.4732,12.8,30.1,11111222
BP,ioos:station:wmo:42865:1,2021-08-02T04:10:00Z,28.1831,-88.4732,12.9,30.2,11111222
BP,ioos:station:wmo:42865:1,2021-08-02T04:20:00Z,28.1831,-88.4732,13.0,30.3,11111222
BP,ioos:station:wmo:42865:1,2021-08-02T04:30:00Z,28.1831,-88.4732,13.0,30.2,11111222
BP,ioos:station:wmo:42865:1,2021-08-02T04:40:00Z,28.1831,-88.4732,12.9,30.2,11111222
BP,ioos:station:wmo:42865:1,2021-08-02T04:50:00Z,28.1831,-88.4732,12.8,30.1,11111222
BP,ioos:station:wmo:42865:1,2021-08-02T05:00:00Z,28.1831,-88.4732,12.7,30.1,11111222
BP,ioos:station:wmo:42865:1,2021-08-02T05:10:00Z,28.1831,-88.4732,12.6,30.1,11111222
BP,ioos:station:wmo:42865:1,2021-08-02T05:20:00Z,28.1831,-88.4732,12.6,30.1,11111222
BP,ioos:station:wmo:42865:1,2021-08-02T05:30:00Z,28.1831,-88.4732,12.5,30.1,11111222
BP,ioos:station:wmo:42865:1,2021-08-02T05:40:00Z,28.1831,-88.4732,12.5,30.1,11111222
BP,ioos:station:wmo:42865:1,2021-08-02T05:50:00Z,28.1831,-88.4732,12.2,30.1,11111222
BP,ioos:station:wmo:42865:1,2021-08-02T06:00:00Z,28.1831,-88.4732,12.1,30.0,11111222
BP,ioos:station:wmo:42865:1,2021-08-02T06:10:00Z,28.1831,-88.4732,12.0,30.0,11111222
BP,ioos:station:wmo:42865:1,2021-08-02T06:20:00Z,28.1831,-88.4732,12.1,30.1,11111222
BP,ioos:station:wmo:42865:1,2021-08-02T06:30:00Z,28.1831,-88.4732,12.2,30.1,11111222
BP,ioos:station:wmo:42865:1,2021-08-02T06:40:00Z,28.1831,-88.4732,12.1,30.1,11111222
BP,ioos:station:wmo:42865:1,2021-08-02T06:50:00Z,28.1831,-88.4732,12.2,30.1,11111222
BP,ioos:station:wmo:42865:1,2021-08-02T07:00:00Z,28.1831,-88.4732,12.2,30.1,11111222
BP,ioos:station:wmo:42865:1,2021-08-02T07:10:00Z,28.1831,-88.4732,12.4,30.1,11111222
BP,ioos:station:wmo:42865:1,2021-08-02T07:20:00Z,28.1831,-88.4732,12.3,30.0,11111222
BP,ioos:station:wmo:42865:1,2021-08-02T07:30:00Z,28.1831,-88.4732,12.3,30.0,11111222
BP,ioos:station:wmo:42865:1,2021-08-02T07:40:00Z,28.1831,-88.4732,12.4,30.0,11111222
BP,ioos:station:wmo:42865:1,2021-08-02T07:50:00Z,28.1831,-88.4732,12.2,30.0,11111222
BP,ioos:station:wmo:42865:1,2021-08-02T08:00:00Z,28.1831,-88.4732,12.1,30.0,11111222
BP,ioos:station:wmo:42865:1,2021-08-02T08:10:00Z,28.1831,-88.4732,12.1,30.1,11111222
BP,ioos:station:wmo:42865:1,2021-08-02T08:20:00Z,28.1831,-88.4732,12.0,30.1,11111222
BP,ioos:station:wmo:42865:1,2021-08-02T08:30:00Z,28.1831,-88.4732,12.0,30.1,11111222
BP,ioos:station:wmo:42865:1,2021-08-02T08:40:00Z,28.1831,-88.4732,12.8,30.1,11111222
BP,ioos:station:wmo:42865:1,2021-08-02T08:50:00Z,28.1831,-88.4732,14.0,30.1,11111222
BP,ioos:station:wmo:42865:1,2021-08-02T09:00:00Z,28.1831,-88.4732,13.9,30.1,11111222
BP,ioos:station:wmo:42865:1,2021-08-02T09:10:00Z,28.1831,-88.4732,13.9,30.1,11111222
BP,ioos:station:wmo:42865:1,2021-08-02T09:20:00Z,28.1831,-88.4732,13.9,30.1,11111222
BP,ioos:station:wmo:42865:1,2021-08-02T09:30:00Z,28.1831,-88.4732,13.8,30.1,11111222
BP,ioos:station:wmo:42865:1,2021-08-02T09:40:00Z,28.1831,-88.4732,13.8,30.1,11111222
BP,ioos:station:wmo:42865:1,2021-08-02T09:50:00Z,28.1831,-88.4732,13.9,30.1,11111222
BP,ioos:station:wmo:42865:1,2021-08-02T10:00:00Z,28.1831,-88.4732,14.0,30.1,11111222
BP,ioos:station:wmo:42865:1,2021-08-02T10:10:00Z,28.1831,-88.4732,14.0,30.1,11111222
BP,ioos:station:wmo:42865:1,2021-08-02T10:20:00Z,28.1831,-88.4732,14.0,30.1,11111222
BP,ioos:station:wmo:42865:1,2021-08-02T10:30:00Z,28.1831,-88.4732,14.1,30.1,11111222
BP,ioos:station:wmo:42865:1,2021-08-02T10:40:00Z,28.1831,-88.4732,14.1,30.0,11111222
BP,ioos:station:wmo:42865:1,2021-08-02T10:50:00Z,28.1831,-88.4732,14.1,30.0,11111222
BP,ioos:station:wmo:42865:1,2021-08-02T11:00:00Z,28.1831,-88.4732,14.1,30.0,11111222
BP,ioos:station:wmo:42865:1,2021-08-02T11:10:00Z,28.1831,-88.4732,14.1,30.0,11111222
BP,ioos:station:wmo:42865:1,2021-08-02T11:20:00Z,28.1831,-88.4732,14.1,30.0,11111222
BP,ioos:station:wmo:42865:1,2021-08-02T11:30:00Z,28.1831,-88.4732,14.0,30.0,11111222
BP,ioos:station:wmo:42865:1,2021-08-02T11:40:00Z,28.1831,-88.4732,14.0,30.0,11111222
BP,ioos:station:wmo:42865:1,2021-08-02T11:50:00Z,28.1831,-88.4732,13.9,30.0,11111222
BP,ioos:station:wmo:42865:1,2021-08-02T12:01:00Z,28.1831,-88.4732,13.9,30.0,11111222
BP,ioos:station:wmo:42865:1,2021-08-02T12:11:00Z,28.1831,-88.4732,13.9,30.1,11111222
BP,ioos:station:wmo:42865:1,2021-08-02T12:21:00Z,28.1831,-88.4732,14.0,30.1,11111222
BP,ioos:station:wmo:42865:1,2021-08-02T12:31:00Z,28.1831,-88.4732,14.0,30.1,11111222
BP,ioos:station:wmo:42865:1,2021-08-02T12:41:00Z,28.1831,-88.4732,13.9,30.1,11111222
BP,ioos:station:wmo:42865:1,2021-08-02T12:51:00Z,28.1831,-88.4732,14.0,30.2,11111222
BP,ioos:station:wmo:42865:1,2021-08-02T13:01:00Z,28.1831,-88.4732,14.0,30.2,11111222
BP,ioos:station:wmo:42865:1,2021-08-02T13:11:00Z,28.1831,-88.4732,14.1,30.2,11111222
BP,ioos:station:wmo:42865:1,2021-08-02T13:21:00Z,28.1831,-88.4732,14.1,30.2,11111222
BP,ioos:station:wmo:42865:1,2021-08-02T13:31:00Z,28.1831,-88.4732,14.1,30.2,11111222
BP,ioos:station:wmo:42865:1,2021-08-02T13:41:00Z,28.1831,-88.4732,14.2,30.2,11111222
BP,ioos:station:wmo:42865:1,2021-08-02T13:51:00Z,28.1831,-88.4732,14.1,30.2,11111222
BP,ioos:station:wmo:42865:1,2021-08-02T14:01:00Z,28.1831,-88.4732,14.0,30.2,11111222
BP,ioos:station:wmo:42865:1,2021-08-02T14:11:00Z,28.1831,-88.4732,14.0,30.2,11111222
BP,ioos:station:wmo:42865:1,2021-08-02T14:21:00Z,28.1831,-88.4732,13.5,30.2,11111222
BP,ioos:station:wmo:42865:1,2021-08-02T14:31:00Z,28.1831,-88.4732,13.2,30.2,11111222
BP,ioos:station:wmo:42865:1,2021-08-02T14:41:00Z,28.1831,-88.4732,13.3,30.2,11111222
BP,ioos:station:wmo:42865:1,2021-08-02T14:51:00Z,28.1831,-88.4732,13.4,30.2,11111222
BP,ioos:station:wmo:42865:1,2021-08-02T15:01:00Z,28.1831,-88.4732,13.4,30.2,11111222
BP,ioos:station:wmo:42865:1,2021-08-02T15:11:00Z,28.1831,-88.4732,13.6,30.2,11111222
BP,ioos:station:wmo:42865:1,2021-08-02T15:21:00Z,28.1831,-88.4732,13.5,30.2,11111222
BP,ioos:station:wmo:42865:1,2021-08-02T15:31:00Z,28.1831,-88.4732,13.6,30.1,11111222
BP,ioos:station:wmo:42865:1,2021-08-02T15:41:00Z,28.1831,-88.4732,13.4,30.1,11111222
BP,ioos:station:wmo:42865:1,2021-08-02T15:51:00Z,28.1831,-88.4732,13.4,30.1,11111222
BP,ioos:station:wmo:42865:1,2021-08-02T16:01:00Z,28.1831,-88.4732,13.5,30.1,11111222
BP,ioos:station:wmo:42865:1,2021-08-02T16:11:00Z,28.1831,-88.4732,13.5,30.1,11111222
BP,ioos:station:wmo:42865:1,2021-08-02T16:21:00Z,28.1831,-88.4732,13.5,30.1,11111222
BP,ioos:station:wmo:42865:1,2021-08-02T16:31:00Z,28.1831,-88.4732,13.5,30.1,11111222
BP,ioos:station:wmo:42865:1,2021-08-02T16:41:00Z,28.1831,-88.4732,13.5,30.1,11111222
BP,ioos:station:wmo:42865:1,2021-08-02T16:51:00Z,28.1831,-88.4732,13.6,30.2,11111222
BP,ioos:station:wmo:42865:1,2021-08-02T17:01:00Z,28.1831,-88.4732,13.7,30.1,11111222
BP,ioos:station:wmo:42865:1,2021-08-02T17:11:00Z,28.1831,-88.4732,13.7,30.2,11111222
BP,ioos:station:wmo:42865:1,2021-08-02T17:21:00Z,28.1831,-88.4732,13.6,30.2,11111222
BP,ioos:station:wmo:42865:1,2021-08-02T17:31:00Z,28.1831,-88.4732,13.6,30.2,11111222
BP,ioos:station:wmo:42865:1,2021-08-02T17:41:00Z,28.1831,-88.4732,13.7,30.2,11111222
BP,ioos:station:wmo:42865:1,2021-08-02T17:51:00Z,28.1831,-88.4732,13.8,30.2,11111222
BP,ioos:station:wmo:42865:1,2021-08-02T18:01:00Z,28.1831,-88.4732,13.8,30.1,11111222
BP,ioos:station:wmo:42865:1,2021-08-02T18:11:00Z,28.1831,-88.4732,13.8,30.1,11111222
BP,ioos:station:wmo:42865:1,2021-08-02T18:21:00Z,28.1831,-88.4732,13.7,30.1,11111222
BP,ioos:station:wmo:42865:1,2021-08-02T18:31:00Z,28.1831,-88.4732,13.7,30.1,11111222
BP,ioos:station:wmo:42865:1,2021-08-02T18:41:00Z,28.1831,-88.4732,13.6,30.1,11111222
BP,ioos:station:wmo:42865:1,2021-08-02T18:51:00Z,28.1831,-88.4732,13.4,30.1,11111222
BP,ioos:station:wmo:42865:1,2021-08-02T19:01:00Z,28.1831,-88.4732,13.5,30.2,11111222
BP,ioos:station:wmo:42865:1,2021-08-02T19:11:00Z,28.1831,-88.4732,13.6,30.2,11111222
BP,ioos:station:wmo:42865:1,2021-08-02T19:21:00Z,28.1831,-88.4732,13.7,30.2,11111222
BP,ioos:station:wmo:42865:1,2021-08-02T19:31:00Z,28.1831,-88.4732,13.7,30.2,11111222
BP,ioos:station:wmo:42865:1,2021-08-02T19:41:00Z,28.1831,-88.4732,13.8,30.2,11111222
BP,ioos:station:wmo:42865:1,2021-08-02T19:51:00Z,28.1831,-88.4732,13.8,30.2,11111222
BP,ioos:station:wmo:42865:1,2021-08-02T20:01:00Z,28.1831,-88.4732,13.8,30.2,11111222
BP,ioos:station:wmo:42865:1,2021-08-02T20:11:00Z,28.1831,-88.4732,13.8,30.2,11111222
BP,ioos:station:wmo:42865:1,2021-08-02T20:21:00Z,28.1831,-88.4732,13.9,30.2,11111222
BP,ioos:station:wmo:42865:1,2021-08-02T20:31:00Z,28.1831,-88.4732,13.8,30.2,11111222
BP,ioos:station:wmo:42865:1,2021-08-02T20:41:00Z,28.1831,-88.4732,13.8,30.2,11111222
BP,ioos:station:wmo:42865:1,2021-08-02T20:51:00Z,28.1831,-88.4732,13.8,30.2,11111222
BP,ioos:station:wmo:42865:1,2021-08-02T21:01:00Z,28.1831,-88.4732,13.8,30.2,11111222
BP,ioos:station:wmo:42865:1,2021-08-02T21:11:00Z,28.1831,-88.4732,13.8,30.2,11111222
BP,ioos:station:wmo:42865:1,2021-08-02T21:21:00Z,28.1831,-88.4732,13.7,30.2,11111222
BP,ioos:station:wmo:42865:1,2021-08-02T21:31:00Z,28.1831,-88.4732,13.6,30.2,11111222
BP,ioos:station:wmo:42865:1,2021-08-02T21:41:00Z,28.1831,-88.4732,13.5,30.1,11111222
BP,ioos:station:wmo:42865:1,2021-08-02T21:51:00Z,28.1831,-88.4732,13.5,30.1,11111222
BP,ioos:station:wmo:42865:1,2021-08-02T22:01:00Z,28.1831,-88.4732,13.5,30.1,11111222
BP,ioos:station:wmo:42865:1,2021-08-02T22:11:00Z,28.1831,-88.4732,13.6,30.1,11111222
BP,ioos:station:wmo:42865:1,2021-08-02T22:21:00Z,28.1831,-88.4732,13.8,30.1,11111222